Regional Weather Roundup
Issued by NWS Columbia, SC

Home | Current Version | Previous Version | Text Only | Print | Product List | Glossary On
Versions: 1 2 3 4 5 6 7 8 9 10 11 12 13 14 15 16 17 18 19 20 21 22 23 24 25 26 27 28 29 30 31 32 33 34 35 36 37 38 39 40 41 42 43 44 45 46 47 48 49 50
000
ASUS42 KCAE 312110
RWRCAE
REGIONAL WEATHER ROUNDUP
NATIONAL WEATHER SERVICE COLUMBIA SC
500 PM EDT TUE MAY 31 2016

NOTE: "FAIR" INDICATES FEW OR NO CLOUDS BELOW 12,000 FEET WITH NO
SIGNIFICANT WEATHER AND/OR OBSTRUCTIONS TO VISIBILITY.

NOT ALL STATIONS ARE QUALITY CONTROLLED BY THE NATIONAL
WEATHER SERVICE. USE DATA WITH CAUTION...ESPECIALLY
DEWPOINT OBSERVATIONS.

SCZ001>056-GAZ040-063>065-077-312200-
...UPSTATE SOUTH CAROLINA...

CITY           SKY/WX    TMP DP  RH WIND       PRES   REMARKS
ANDERSON       SUNNY     88  63  43 CALM      29.91F
LIBERTY        PTCLDY    88  64  44 CALM      29.93S
SPARTANBURG    CLOUDY    77  64  65 NW3       29.95R
CLEMSON        SUNNY     89  64  43 VRB3      29.93F
GREENVILLE     LGT RAIN  78  68  71 SE8       29.96R
GREENWOOD      SUNNY     88  65  46 VRB5      29.92F
GREER          CLOUDY    77  68  73 SE5       29.94S
ROCK HILL      MOSUNNY   87  64  46 VRB3      29.92F
CHESTER        CLOUDY    86  63  45 NE5       29.92S
LAURENS        PTCLDY    82  70  65 N5        29.92F


...CENTRAL SOUTH CAROLINA...

CITY           SKY/WX    TMP DP  RH WIND       PRES   REMARKS
COLUMBIA APT   MOSUNNY   90  65  43 VRB5      29.87F
COLUMBIA OWENS PTSUNNY   91  65  41 VRB5      29.88F
MCENTIRE ANGB  PTSUNNY   88  67  48 VRB6      29.88F
ORANGEBURG     PTSUNNY   90  66  45 VRB6      29.88F
SUMTER SHAW    MOSUNNY   87  66  49 N6        29.86F
NEWBERRY       CLEAR     88  64  45 CALM      29.93F
AIKEN          FAIR      88  63  42 CALM      29.92F
BARNWELL       FAIR      90  72  55 CALM      29.89F HX  96
MANNING        FAIR      86  61  42 N8        29.88S
LANCASTER      CLEAR     86  64  48 NE5       29.91F
WINNSBORO      CLEAR     88  64  45 NE7       29.90F


...EASTERN AND COASTAL SOUTH CAROLINA...

CITY           SKY/WX    TMP DP  RH WIND       PRES   REMARKS
MYRTLE BEACH   PTSUNNY   73  64  73 N7        29.90S
N MYRTLE BCH   CLOUDY    76  72  87 NE10      29.87S
CONWAY         CLOUDY    72  72 100 NW5       29.89R
MARION         FAIR      86  68  54 N9        29.88S
HARTSVILLE     FAIR      82  68  61 E8        29.89S
FLORENCE       MOSUNNY   87  67  51 NE10      29.88F
DARLINGTON     CLOUDY    83  73  72 N9        29.90S
CHARLESTON APT CLOUDY    86  70  58 E8        29.87F
MOUNT PLEASANT FAIR      79  72  78 CALM      29.88F
WALTERBORO     CLEAR     88  68  51 CALM      29.89F
BEAUFORT       MOSUNNY   88  70  55 NW8       29.89F


...EASTERN GEORGIA...

CITY           SKY/WX    TMP DP  RH WIND       PRES   REMARKS
AUGUSTA BUSH F SUNNY     87  66  49 CALM      29.88F
AUGUSTA DANIEL SUNNY     88  66  48 SE3       29.90F
THOMSON        SUNNY     92  65  40 S5        29.93F
WASHINGTON     FAIR      95  68  41 E6        29.89F HX  99
CLAXTON        FAIR      90  70  51 NE3       29.88S HX  96
SYLVANIA       CLEAR     90  69  50 CALM      29.89F
STATESBORO     SUNNY     90  70  52 N7        29.88F HX  95
SAVANNAH       PTSUNNY   86  73  65 SE8       29.88F


...SOUTHERN NORTH CAROLINA...

CITY           SKY/WX    TMP DP  RH WIND       PRES   REMARKS
CHARLOTTE      MOSUNNY   86  63  45 SE7G16    29.92F
MONROE         MOSUNNY   85  65  51 E5        29.91
WADESBORO      CLEAR     86  62  44 N8        29.90S
ROCKINGHAM     PTCLDY    81  69  66 N7        29.90F
RUTHERFORDTON  RAIN      66  66 100 N8        30.01R
ASHEVILLE      CLOUDY    76  63  64 VRB3      30.03R

$$



USA.gov is the U.S. government's official web portal to all federal, state and local government web resources and services.